Regional Weather Roundup
Issued by NWS Wakefield, VA

Home | Current Version | Previous Version | Graphics & Text | Print | Product List | Glossary On
Versions: 1 2 3 4 5 6 7 8 9 10 11 12 13 14 15 16 17 18 19 20 21 22 23 24 25 26 27 28 29 30 31 32 33 34 35 36 37 38 39 40 41 42 43 44 45 46 47 48 49 50
000
ASUS41 KAKQ 310114
RWRAKQ

REGIONAL WEATHER ROUNDUP
NATIONAL WEATHER SERVICE WAKEFIELD VA
900 PM EDT THU JUL 30 2015

Note: "fair" indicates few or no clouds below 12,000 feet with no
significant weather and/or obstructions to visibility. * = Denotes
station may not report precipitation (e.g., rain,snow,etc.),
thunder or fog.

VAZ042-051-052>054-056-310200-
NORTHERN VIRGINIA

CITY           SKY/WX    TMP DP  RH WIND       PRES   REMARKS
WASH NATIONAL  CLOUDY    83  74  74 SW7       29.88R
DULLES         MOCLDY    78  75  90 SW3       29.89R
FORT BELVOIR   CLOUDY    78  75  91 CALM      29.88R
QUANTICO       MOCLDY    79  74  84 W3        29.84S
FREDERICKSBRG* CLOUDY    80  80 100 E5        29.88R
STAFFORD*      CLOUDY    76  74  93 SE3       29.93R
WARRENTON      CLOUDY    77  76  98 CALM      29.89S FOG
CULPEPER*      MOCLDY    75  74  98 CALM      29.91R FOG
MANASSAS*      CLEAR     79  77  94 CALM      29.90R
LEESBURG*      PTCLDY    81  68  65 W8        29.90S
WINCHESTER     PTCLDY    77  61  57 NW5       29.93R
FRONT ROYAL*   FAIR      77  64  65 CALM      29.91S
LURAY*         FAIR      82  61  47 N8        29.94R
$$

VAZ048-049-060>072-079>083-310200-
CENTRAL AND SOUTH CENTRAL VIRGINIA

CITY           SKY/WX    TMP DP  RH WIND       PRES   REMARKS
RICHMOND       MOCLDY    82  76  81 E3        29.87S
CHESTERFIELD*  FAIR      81  66  61 CALM      29.89R
PETERSBURG*    PTCLDY    81  81 100 CALM      29.88S
HANOVER        MOCLDY    79  76  90 CALM      29.90R
TAPPAHANNOCK*  MOCLDY    76  74  91 CALM      29.89R
QUINTON*       FAIR      78  73  86 CALM      29.86F
CHARLOTTSVILLE PTCLDY    76  73  91 CALM      29.91S
GORDONSVILLE*  FAIR      75  72  88 NW3       29.90R
ORANGE*        MOCLDY    79  77  94 CALM      29.92R
LOUISA*        MOCLDY    73  72  94 CALM      29.89S
BUMPASS*       MOCLDY    75  73  92 NW6       29.89R
FARMVILLE*     MOCLDY    77  71  81 W3        29.90R
CREWE*         FAIR     N/A N/A N/A CALM      29.88S
FORT PICKETT*  FAIR      78  76  94 CALM      29.89R
CHASE CITY*    FAIR      81  81  99 CALM      29.88S
CLARKSVILLE*   FAIR      77  77 100 CALM      29.88S
SOUTH HILL*    PTCLDY    80  77  91 CALM      29.94S
LAWRENCEVILLE* FAIR      79  75  89 CALM      29.88R
EMPORIA*       MOCLDY    79  73  83 CALM      29.89S
$$

VAZ088>098-310200-
SOUTHEAST VIRGINIA

CITY           SKY/WX    TMP DP  RH WIND       PRES   REMARKS
NORFOLK        MOCLDY    86  73  65 S8        29.87R
VIRGINIA BEACH MOCLDY    87  75  67 S7        29.87R HX  96
NORFOLK NAVAL  CLOUDY    85  73  67 VRB6      29.88S
WEST POINT*    MOCLDY    79  74  84 CALM      29.88S
SALUDA*        MOCLDY    75  74  97 CALM      29.88S
NEWPORT NEWS   CLOUDY    84  76  76 NE6       29.88R
LANGLEY AFB    CLOUDY    86  75  70 S8        29.87S HX  95
FORT EUSTIS    CLOUDY    84  84 100 NE3       29.85S HX 103
WILLIAMSBURG*  MOCLDY    84  79  84 CALM      29.88S HX  96
HR EXEC AP*    FAIR      82  73  74 S6        29.89F
FRANKLIN*      MOCLDY    84  75  75 CALM      29.88S
WAKEFIELD      MOCLDY    82  77  84 CALM      29.87S
$$

VAZ020-022-025-037-045-310200-
WEST CENTRAL AND SOUTHWEST VIRGINIA

CITY           SKY/WX    TMP DP  RH WIND       PRES   REMARKS
STAUNTON*      PTCLDY    82  61  49 NW6       29.97R
WAYNESBORO*    FAIR      78  69  75 NW3       29.97R
HOT SPRINGS VA CLEAR     68  56  66 NW16      30.11R
LYNCHBURG      PTCLDY    81  72  74 CALM      29.94R
DANVILLE       LGT RAIN  83  76  79 W9        29.90S
SOUTH BOSTON*  FAIR      79  78  94 CALM      29.88S
MARTINSVILLE   PTCLDY    83  67  58 NW8       29.96R
ROANOKE        PTCLDY    80  60  50 NW13      29.99R
BLACKSBURG     CLEAR     76  64  67 NW7       30.07R
DUBLIN*          N/A     76  66  71 CALM      30.06R
MARION*        CLEAR     75  62  64 W3        30.11R
HILLSVILLE*    PTCLDY    74  66  75 N10       30.06R
RICHLANDS*     MOCLDY    72  64  77 N6        30.11R
WISE*          CLEAR     72  57  60 CALM      30.12S
ABINGDON*      CLEAR     78  61  55 N5G16     30.07R
$$

MDZ021>025-VAZ099-100-310200-
SOUTHERN MARYLAND AND THE DELMARVA PENINSULA

CITY           SKY/WX    TMP DP  RH WIND       PRES   REMARKS
PATUXENT RIVER CLOUDY    76  74  93 CALM      29.87S
BAY BRIDGE APT   N/A     79  73  83 SW3       29.87S
LEONARDTOWN    MOCLDY    73  72  94 CALM      29.90R
DOVER          MOCLDY    77  77 100 SW7       29.86R
GEORGETOWN     CLOUDY    77  74  90 W5        29.88R
EASTON         MOCLDY    79  79 100 SW7       29.91R
CAMBRIDGE      CLOUDY    77  73  88 CALM      29.87S
SALISBURY      CLOUDY    76  75  97 W5        29.88R
OCEAN CITY     LGT RAIN  79  76  90 W5        29.88R
WALLOPS ISLAND LGT RAIN  80  79  96 NW7       29.89R
ACCOMACK*      LGT RAIN  77  75  94 NW6       29.89S
$$

NCZ012>017-030>032-310200-
NORTH CENTRAL AND EASTERN NORTH CAROLINA

CITY           SKY/WX    TMP DP  RH WIND       PRES   REMARKS
ROANOKE RAPIDS FAIR      79  73  83 E7        29.87F
RALEIGH        MOCLDY    84  75  74 CALM      29.89R
ELIZABETH CITY PTCLDY    83  76  79 S9        29.90R
AHOSKIE*       MOCLDY    83  74  76 CALM      29.88S
EDENTON*         N/A     82  74  76 S12       29.89R
CURRITUCK*     PTCLDY    84  73  71 S5        29.90R
KILL DEVIL HLS PTCLDY    82  73  72 S6        29.90R
MANTEO         PTCLDY    82  74  76 S15       29.91R
CAPE HATTERAS  MOCLDY    82  75  79 S12       29.91S
TARBORO*         N/A     85  76  76 CALM      29.88S
GOLDSBORO      NOT AVBL
WASHINGTON     PTCLDY    82  75  78 SE3       29.89R
GREENVILLE     PTCLDY    86  75  70 S5        29.90S HX  95
NEW BERN       PTCLDY    81  74  79 SE5       29.90R
WILMINGTON     PTCLDY    82  74  76 SE5       29.88R
$$

VAZ048-310200-
ELSEWHERE

CITY           SKY/WX    TMP DP  RH WIND       PRES   REMARKS
HARRISBURG PA  PTCLDY    80  63  55 NW3       29.86R
BALTIMORE      MOCLDY    80  75  84 SW5       29.87R
ANNAPOLIS      MOCLDY    79  74  84 CALM      29.87R
ANDREWS AFB    CLOUDY    78  74  89 SW7       29.88R
PHILADELPHIA   MOCLDY    79  73  82 SW8       29.86R
HENDERSON NC   PTCLDY    80  74  82 CALM      29.89S
GREENSBORO     PTCLDY    84  72  65 SE3       29.92R THUNDER
ROCKY MOUNT    CLOUDY    82  74  76 NW6       29.89R
$$

VAZ100-310200-
MARINE

STATION/POSITION TIME  TEMP    WIND        PRES    WAVE   SWELL
                       AIR SEA DIR/SP/G            HT/PER HT/PER
                 (UTC) (F)     (DEG/KT/KT) (MB)    (FT/S) (FT/S)
BRANDYWINE LGT   0000   77 75  280/ 12/ 13 1011.3R
CAPE MAY NJ      0000   78 80  300/  3/  4 1010.8R
LEWES DE         0000   80 75  240/  4/  5 1010.9R
15NM E FENWICK I 0050   80 80  200/ 12/ 14 1011.6R   3/10   2/10
OCEAN-CITY-INLET 0000   77 75  230/  9/ 10 1010.6R
WACHAPREAGUE VA  0000   83 86  200/  9/ 11 1011.6R
THOMAS POINT MD  0000      81  220/  9/ 10 1011.8R
GOOSES REEF MD   0100   79 82  230/  8/ 10 1012.6R
COVE POINT MD    0000   76     220/  4/  5 1012.2R
SOLOMONS ISLAND  0000      82                N/A
BISHOPS HEAD MD  0000   79 85  240/  7/  8 1010.6F
PINEY POINT MD   0000          160/  5/  6   N/A
POTOMAC MD       0100   79 84  190/  8/ 10 1010.6R   0
CAMBRIDGE MD     0000   77 84  210/  5/  6 1010.6R
LEWISETTA VA     0000   77 85  190/  6/  7 1011.1F
RAPPAHANNOCK LGT 0000          310/ 24/ 26 1012.5R
STINGRAY PT      0100   80 84   60/  6/  6 1011.7F   1/ 3
YORK RVR RNG VA  0000   84     140/  3/  4 1011.0R
YORKTOWN VA      0000   85 84   20/  3/  3 1011.2R
JAMESTOWN VA     0100   84 87   70/  6/ 10   N/A
DOMINION TERM VA 0000   86     190/  9/ 11 1011.2R
KIPTOPEKE VA     0000      85  170/ 10/ 13   N/A
CHES BAY BRIDGE  0000   87 79  170/  8/  9 1011.0R
CAPE HENRY VA    0000   86     180/  4/  5   N/A
CHESAPEAKE LGHT  0000   82     170/ 17/ 18 1012.1R
WILLOUBY STN VA  0000   87     220/  9/ 11 1012.4R
CAPE HENRY BUOY  0028      81                N/A     3/ 7
1ST LANDING BUOY 0100      81              1011.2R   2/ 3
CAPE CHARLES BUO 0026      81                N/A     2/ 9   2/ 9
OFFSHORE WE BUOY 0011      82                N/A     4/ 5   2/ 7
64NM E OF VA BCH 0050   82 82  190/ 17/ 19 1012.4R   4/ 6   2/ 8
DUCK PIER NC     0000   83 65  180/ 14/ 18 1011.2R
44100 DUCK FRF   0024      81                N/A     3/ 5
44056 DUCK FRF   0011      71                N/A     3/10
OREGON INLET NC  0000   83 87  160/ 12/ 16 1012.5R
HATTERAS NC      0000   82 84  170/  8/ 13 1012.5R
DIAMOND SHLS NC  0050   83 86  170/ 16/ 19 1012.8R   4/ 8   2/ 8


USA.gov is the U.S. government's official web portal to all federal, state and local government web resources and services.